Date String (YYYY-MM-DD hh:mm:ss) UTC,Instrument flags,absolute air pressure of the measurement (hPa),sample flow rate (lpm),inlet stack bypass flow (lpm),air temperature of the measurement (°C),ambient temperature measured by the external sensor (°C),aerosol sample conditioner tube jacket temperature (°C),OPC LED temperature (°C),internal box temperature (°C),relative humidity of the measurement (%),span deviation,mass concentration of particles derived from Lorenz-Mie calculation of OPC scattering (μg/m³),mass concentration of particles derived from Lorenz-Mie calculation of OPC scattering (μg/m³),mass concentration of particles derived from Lorenz-Mie calculation of OPC scattering (μg/m³)
DateTimeUTC,F1_M11,P_M11,Q1_M11,Q2_M11,T1_M11,T2_M11,T3_M11,T4_M11,T5_M11,U1_M11,ZSPAN_M11,X2_M11,X0_M11,X1_M11
2023-07-22 01:00:00,SystemResetWarning,0836.7,5.01,000.00,028.9,024.9,000.0,037.0,030.3,33.7,0001.3,0006.96,0013.71,0006.56
2023-07-22 01:01:00,SystemResetWarning,0836.8,5.01,000.00,028.8,025.1,000.0,037.0,030.1,34.3,0001.2,0006.94,0012.80,0006.55
2023-07-22 01:02:00,SystemResetWarning,0836.7,5.00,000.00,028.7,025.5,000.0,037.1,030.2,34.4,0000.5,0006.96,0012.76,0006.54
2023-07-22 01:03:00,SystemResetWarning,0836.7,4.97,000.00,028.8,026.0,000.0,037.1,030.3,36.1,0000.2,0006.93,0012.70,0006.53
2023-07-22 01:04:00,SystemResetWarning,0836.8,5.03,000.00,029.0,026.4,000.0,037.2,030.5,35.7,-000.2,0006.92,0012.25,0006.53
2023-07-22 01:05:00,SystemResetWarning,0836.9,4.97,000.00,029.3,026.8,000.0,037.2,030.7,32.7,-000.6,0006.90,0011.15,0006.51
2023-07-22 01:06:00,SystemResetWarning,0837.1,5.02,000.00,029.5,027.2,000.0,037.2,030.8,30.6,-000.8,0006.90,0011.03,0006.50
2023-07-22 01:07:00,SystemResetWarning,0837.2,5.00,000.00,029.6,027.4,000.0,037.3,030.9,27.6,-001.2,0006.88,0011.11,0006.49
2023-07-22 01:08:00,SystemResetWarning,0837.2,4.99,000.00,029.7,027.7,000.0,037.4,030.9,25.1,-001.2,0006.87,0010.82,0006.48
2023-07-22 01:09:00,SystemResetWarning,0837.2,5.00,000.00,029.8,027.9,000.0,037.5,031.0,25.2,-001.4,0006.84,0010.73,0006.46
2023-07-22 01:10:00,SystemResetWarning,0837.2,5.00,000.00,029.9,027.2,000.0,037.5,030.9,25.5,-001.3,0006.86,0010.14,0006.45
2023-07-22 01:11:00,SystemResetWarning,0837.2,5.00,000.00,029.9,025.7,000.0,037.5,030.7,24.8,-001.6,0006.85,0010.17,0006.43
2023-07-22 01:12:00,SystemResetWarning,0837.4,5.02,000.00,029.8,025.4,000.0,037.5,030.5,25.8,-001.2,0006.82,0010.15,0006.40
2023-07-22 01:13:00,SystemResetWarning,0837.6,5.01,000.00,029.7,025.6,000.0,037.5,030.4,26.5,-000.5,0006.83,0010.09,0006.39
2023-07-22 01:14:00,SystemResetWarning,0837.8,4.99,000.00,029.7,026.0,000.0,037.6,030.5,30.0,-000.8,0006.86,0010.19,0006.39
2023-07-22 01:15:00,SystemResetWarning,0838.0,5.00,000.00,029.7,026.4,000.0,037.7,030.6,32.8,-000.4,0006.87,0011.08,0006.38
2023-07-22 01:16:00,SystemResetWarning,0838.1,5.01,000.00,029.7,026.8,000.0,037.7,030.7,33.4,-000.1,0006.94,0011.42,0006.42
2023-07-22 01:17:00,SystemResetWarning,0838.0,5.00,000.00,029.7,027.1,000.0,037.8,030.8,32.9,0000.3,0007.12,0012.07,0006.50
2023-07-22 01:18:00,SystemResetWarning,0837.9,4.99,000.00,029.7,027.4,000.0,037.8,030.8,31.1,0000.3,0007.33,0012.42,0006.59
2023-07-22 01:19:00,SystemResetWarning,0838.1,5.00,000.00,029.8,027.6,000.0,037.8,030.9,29.5,0000.3,0007.47,0013.30,0006.67
2023-07-22 01:20:00,SystemResetWarning,0838.2,5.00,000.00,029.8,027.7,000.0,037.9,030.9,29.1,0000.8,0007.72,0014.54,0006.76
2023-07-22 01:21:00,SystemResetWarning,0838.2,5.00,000.00,029.8,026.4,000.0,037.8,030.8,25.8,0000.9,0007.80,0014.65,0006.82
2023-07-22 01:22:00,SystemResetWarning,0838.3,5.01,000.00,029.7,025.2,000.0,037.7,030.5,26.9,0001.0,0007.84,0014.59,0006.88
2023-07-22 01:23:00,SystemResetWarning,0838.3,5.01,000.00,029.6,025.1,000.0,037.6,030.2,28.1,0001.3,0007.95,0014.83,0006.95
2023-07-22 01:24:00,SystemResetWarning,0838.3,5.00,000.00,029.5,025.4,000.0,037.7,030.2,28.1,0001.3,0008.01,0015.39,0006.99
2023-07-22 01:25:00,SystemResetWarning,0838.3,5.00,000.00,029.4,025.8,000.0,037.7,030.3,28.8,0001.5,0008.02,0015.67,0007.04
2023-07-22 01:26:00,SystemResetWarning,0838.3,5.00,000.00,029.4,026.2,000.0,037.7,030.4,29.5,0001.5,0008.05,0014.84,0007.09
2023-07-22 01:27:00,SystemResetWarning,0838.2,5.01,000.00,029.4,026.6,000.0,037.7,030.5,29.6,0001.5,0008.09,0014.65,0007.12
2023-07-22 01:28:00,SystemResetWarning,0838.2,5.00,000.00,029.4,026.9,000.0,037.7,030.6,29.6,0001.8,0008.13,0014.44,0007.15
2023-07-22 01:29:00,SystemResetWarning,0838.2,4.99,000.00,029.4,027.2,000.0,037.7,030.7,29.5,0002.0,0008.18,0014.03,0007.20
2023-07-22 01:30:00,SystemResetWarning,0838.1,5.00,000.00,029.5,027.4,000.0,037.7,030.7,29.6,0002.3,0008.23,0013.58,0007.22
2023-07-22 01:31:00,SystemResetWarning,0838.0,5.00,000.00,029.5,027.6,000.0,037.8,030.8,29.4,0002.3,0008.16,0013.00,0007.21
2023-07-22 01:32:00,SystemResetWarning,0837.7,5.00,000.00,029.5,027.8,000.0,037.8,030.8,29.0,0002.4,0008.21,0013.33,0007.11
2023-07-22 01:33:00,SystemResetWarning,0837.6,5.00,000.00,029.6,027.9,000.0,037.8,030.9,28.4,0003.5,0008.49,0014.42,0007.08
2023-07-22 01:34:00,SystemResetWarning,0837.5,5.00,000.00,029.6,027.9,000.0,037.8,030.9,27.6,0003.7,0008.59,0015.23,0006.97
2023-07-22 01:35:00,SystemResetWarning,0837.4,4.99,000.00,029.6,026.3,000.0,037.7,030.8,27.9,0003.5,0008.48,0014.93,0006.74
2023-07-22 01:36:00,SystemResetWarning,0837.2,5.01,000.00,029.5,025.3,000.0,037.6,030.5,27.8,0003.5,0008.49,0015.11,0006.53
2023-07-22 01:37:00,SystemResetWarning,0837.2,5.01,000.00,029.4,025.2,000.0,037.6,030.3,27.2,0003.4,0008.46,0015.50,0006.32
2023-07-22 01:38:00,SystemResetWarning,0837.0,5.00,000.00,029.3,025.5,000.0,037.6,030.3,26.5,0003.5,0008.31,0015.55,0006.10
2023-07-22 01:39:00,SystemResetWarning,0836.9,5.00,000.00,029.3,025.9,000.0,037.6,030.4,26.0,0003.5,0008.14,0015.56,0005.83
2023-07-22 01:40:00,SystemResetWarning,0837.0,5.00,000.00,029.2,026.4,000.0,037.6,030.5,25.7,0003.6,0007.88,0015.40,0005.53
2023-07-22 01:41:00,SystemResetWarning,0837.0,5.00,000.00,029.3,026.7,000.0,037.7,030.6,25.2,0003.9,0007.63,0015.41,0005.25
2023-07-22 01:42:00,SystemResetWarning,0837.0,4.99,000.00,029.3,027.1,000.0,037.7,030.7,25.5,0003.8,0007.39,0015.02,0004.98
2023-07-22 01:43:00,SystemResetWarning,0837.0,4.99,000.00,029.3,027.3,000.0,037.7,030.7,25.6,0003.9,0007.15,0014.65,0004.81
2023-07-22 01:44:00,SystemResetWarning,0836.9,5.00,000.00,029.3,027.6,000.0,037.7,030.8,28.1,0000.8,0006.68,0013.51,0004.58
2023-07-22 01:45:00,SystemResetWarning,0837.0,5.00,000.00,029.4,027.8,000.0,037.7,030.8,31.6,0000.0,0006.34,0012.46,0004.41
2023-07-22 01:46:00,SystemResetWarning,0837.0,5.01,000.00,029.4,027.9,000.0,037.7,030.9,33.0,0000.0,0006.20,0012.23,0004.36
2023-07-22 01:47:00,SystemResetWarning,0837.0,5.00,000.00,029.4,028.0,000.0,037.7,031.0,33.2,0000.0,0005.99,0012.30,0004.28
2023-07-22 01:48:00,SystemResetWarning,0837.0,4.98,000.00,029.5,026.9,000.0,037.6,030.9,31.8,0000.0,0005.77,0011.82,0004.18
2023-07-22 01:49:00,SystemResetWarning,0837.0,5.01,000.00,029.4,025.5,000.0,037.5,030.6,30.7,0000.0,0005.63,0011.55,0004.09
2023-07-22 01:50:00,SystemResetWarning,0836.9,5.01,000.00,029.3,025.2,000.0,037.5,030.4,31.0,0000.0,0005.37,0011.01,0003.99
2023-07-22 01:51:00,SystemResetWarning,0836.8,5.00,000.00,029.2,025.4,000.0,037.5,030.3,31.3,0000.0,0005.15,0010.84,0003.89
2023-07-22 01:52:00,SystemResetWarning,0836.9,5.00,000.00,029.1,025.8,000.0,037.5,030.4,30.7,0000.0,0004.97,0010.15,0003.81
2023-07-22 01:53:00,SystemResetWarning,0836.8,5.00,000.00,029.1,026.2,000.0,037.6,030.4,30.8,0000.0,0004.76,0009.63,0003.74
2023-07-22 01:54:00,SystemResetWarning,0836.8,5.00,000.00,029.1,026.6,000.0,037.6,030.5,30.8,0000.0,0004.55,0009.20,0003.66
2023-07-22 01:55:00,SystemResetWarning,0836.7,5.00,000.00,029.2,026.9,000.0,037.6,030.6,29.9,0000.0,0004.44,0009.01,0003.60
2023-07-22 01:56:00,SystemResetWarning,0836.6,5.00,000.00,029.2,027.2,000.0,037.6,030.7,29.7,0000.0,0004.36,0009.18,0003.56
2023-07-22 01:57:00,SystemResetWarning,0836.6,5.00,000.00,029.2,027.4,000.0,037.6,030.7,29.7,0000.0,0004.31,0009.09,0003.54
2023-07-22 01:58:00,SystemResetWarning,0836.5,5.00,000.00,029.2,027.6,000.0,037.6,030.7,29.0,0000.0,0004.25,0008.41,0003.53
2023-07-22 01:59:00,SystemResetWarning,0836.5,5.00,000.00,029.3,027.7,000.0,037.6,030.8,28.2,0000.0,0004.30,0008.98,0003.55
